Location: Moscow Pond
(43.6842°N, 73.2366°W)
Time: 21:46:06
(UTC+00:00)

Cosmos 1782 Rocket - Pass Details

Date: 08 November 2025
Orbit: 599 x 626 km, 82.5° (Epoch: 10 December)

Event Time Altitude Azimuth Distance (km) Brightness Sun altitude
Rises 10:23:46 0° 348° (NNW) 2,905 6.8 -13.7°
Reaches altitude 10° 10:26:01 10° 346° (NNW) 1,990 5.9 -13.3°
Maximum altitude 10:30:23 67° 265° (W) 668 3.5 -12.6°
Drops below altitude 10° 10:34:41 10° 183° (S) 1,957 6.2 -11.8°
Sets 10:36:53 0° 180° (S) 2,852 7.1 -11.4°
